DLH1KJ EDDF-LSZH

Flight info

Callsign DLH1KJ
Flight time 0h 30m
Altitude 23000
Route ANEKI2L ANEKI Y163 NEKLO Y171 INKAM T725 LAMGO T721 RILAX RILAX2A
Aircraft A321/M-SDE3FGHIRWY/LB1

Departure

Time 2026-05-04 06:06
Airport Frankfurt Main Airport (EDDF)

Arrival

Time 2026-05-04 06:36
Airport Zürich Airport (LSZH)
Time Latitude Longitude Altitude Speed Heading
2026-05-04 05:52 50.04470 8.56483 364 ft 0 kts 159°
2026-05-04 05:56 50.04472 8.56482 364 ft 2 kts 159°
2026-05-04 05:56 50.04496 8.56468 363 ft 4 kts 164°
2026-05-04 05:56 50.04521 8.56464 363 ft 4 kts 198°
2026-05-04 05:57 50.04540 8.56485 363 ft 3 kts 247°
2026-05-04 05:57 50.04541 8.56490 364 ft 0 kts 249°
2026-05-04 05:59 50.04536 8.56469 364 ft 6 kts 249°
2026-05-04 05:59 50.04515 8.56384 356 ft 9 kts 249°
2026-05-04 06:00 50.04488 8.56262 356 ft 16 kts 252°
2026-05-04 06:00 50.04447 8.56091 359 ft 17 kts 249°
2026-05-04 06:00 50.04386 8.55935 358 ft 17 kts 210°
2026-05-04 06:00 50.04273 8.55960 358 ft 15 kts 171°
2026-05-04 06:01 50.04219 8.55866 359 ft 13 kts 250°
2026-05-04 06:01 50.04186 8.55721 357 ft 15 kts 250°
2026-05-04 06:03 50.03869 8.54397 351 ft 24 kts 243°
2026-05-04 06:03 50.03786 8.54168 349 ft 25 kts 248°
2026-05-04 06:05 50.03330 8.52594 334 ft 15 kts 182°
2026-05-04 06:05 50.02305 8.52608 334 ft 138 kts 180°
2026-05-04 06:05 50.01184 8.52616 494 ft 173 kts 180°
2026-05-04 06:06 49.99973 8.52634 1181 ft 173 kts 179°
2026-05-04 06:06 49.98762 8.52704 1729 ft 180 kts 180°
2026-05-04 06:06 49.97440 8.52793 1957 ft 201 kts 180°
2026-05-04 06:06 49.95974 8.52893 2215 ft 219 kts 179°
2026-05-04 06:07 49.94429 8.53003 2830 ft 224 kts 179°
2026-05-04 06:07 49.92873 8.53119 3582 ft 224 kts 179°
2026-05-04 06:07 49.91302 8.53235 4296 ft 227 kts 180°
2026-05-04 06:07 49.89711 8.53350 5016 ft 231 kts 180°
2026-05-04 06:08 49.88097 8.53464 5721 ft 233 kts 180°
2026-05-04 06:08 49.86997 8.53543 6206 ft 235 kts 180°
2026-05-04 06:08 49.85357 8.53658 6903 ft 237 kts 181°
2026-05-04 06:08 49.83701 8.53771 7581 ft 239 kts 181°
2026-05-04 06:09 49.82030 8.53885 8267 ft 241 kts 181°
2026-05-04 06:09 49.80344 8.54000 8960 ft 244 kts 181°
2026-05-04 06:11 49.66164 8.52536 11024 ft 351 kts 187°
2026-05-04 06:11 49.63715 8.52220 11568 ft 355 kts 187°
2026-05-04 06:13 49.46008 8.49914 15422 ft 373 kts 186°
2026-05-04 06:14 49.30219 8.48408 18399 ft 388 kts 174°
2026-05-04 06:14 49.27572 8.49358 18783 ft 394 kts 163°
2026-05-04 06:15 49.25060 8.51094 19154 ft 400 kts 153°
2026-05-04 06:15 49.22692 8.53370 19532 ft 404 kts 151°
2026-05-04 06:15 49.20308 8.55677 19896 ft 406 kts 151°
2026-05-04 06:15 49.17911 8.57981 20293 ft 409 kts 151°
2026-05-04 06:16 49.15486 8.60279 20678 ft 410 kts 154°
2026-05-04 06:16 49.12911 8.62156 21059 ft 410 kts 160°
2026-05-04 06:16 49.10279 8.63865 21447 ft 412 kts 160°
2026-05-04 06:16 49.07668 8.65559 21815 ft 415 kts 160°
2026-05-04 06:17 49.05005 8.67287 22191 ft 417 kts 160°
2026-05-04 06:17 49.02324 8.69024 22567 ft 420 kts 160°
2026-05-04 06:17 48.99629 8.70767 22917 ft 422 kts 161°
2026-05-04 06:17 48.96912 8.72524 23005 ft 428 kts 160°
2026-05-04 06:18 48.94154 8.74303 23023 ft 432 kts 160°
2026-05-04 06:18 48.91348 8.75904 23019 ft 430 kts 167°
2026-05-04 06:18 48.88427 8.76802 23019 ft 426 kts 177°
2026-05-04 06:20 48.68060 8.72411 22857 ft 420 kts 192°
2026-05-04 06:20 48.65190 8.71655 22580 ft 417 kts 192°
2026-05-04 06:21 48.53882 8.68644 21477 ft 407 kts 192°
2026-05-04 06:21 48.51119 8.67912 20916 ft 400 kts 192°
2026-05-04 06:22 48.48398 8.67193 20362 ft 394 kts 192°
2026-05-04 06:22 48.45724 8.66485 19825 ft 388 kts 191°
2026-05-04 06:25 48.13755 8.57132 13281 ft 340 kts 193°
2026-05-04 06:25 48.11442 8.56444 12769 ft 337 kts 192°
2026-05-04 06:26 48.09158 8.55764 12262 ft 333 kts 192°
2026-05-04 06:26 48.06897 8.55093 11756 ft 330 kts 191°
2026-05-04 06:26 48.04653 8.54430 11255 ft 328 kts 191°
2026-05-04 06:26 48.02459 8.53780 10850 ft 322 kts 191°
2026-05-04 06:27 47.94408 8.51394 10165 ft 276 kts 191°
2026-05-04 06:28 47.92520 8.50708 9930 ft 275 kts 194°
2026-05-04 06:28 47.90706 8.49938 9799 ft 275 kts 195°
2026-05-04 06:28 47.88847 8.49107 9662 ft 276 kts 195°
2026-05-04 06:28 47.87009 8.48283 9531 ft 276 kts 195°
2026-05-04 06:29 47.85170 8.47468 9399 ft 276 kts 195°
2026-05-04 06:29 47.83318 8.46659 8980 ft 277 kts 195°
2026-05-04 06:29 47.81462 8.45853 8497 ft 279 kts 195°
2026-05-04 06:29 47.79592 8.45043 8047 ft 280 kts 196°
2026-05-04 06:30 47.77752 8.44248 7600 ft 281 kts 196°
2026-05-04 06:30 47.75889 8.43449 7310 ft 276 kts 196°
2026-05-04 06:30 47.74023 8.42653 6903 ft 275 kts 198°
2026-05-04 06:30 47.72192 8.41871 6493 ft 275 kts 199°
2026-05-04 06:31 47.70344 8.41082 6087 ft 274 kts 198°
2026-05-04 06:31 47.68509 8.40299 5640 ft 276 kts 197°
2026-05-04 06:31 47.66643 8.39501 5128 ft 279 kts 198°
2026-05-04 06:31 47.64803 8.38718 4937 ft 269 kts 199°
2026-05-04 06:32 47.63064 8.37992 4810 ft 249 kts 195°
2026-05-04 06:33 47.54197 8.45407 3068 ft 181 kts 136°
2026-05-04 06:34 47.53319 8.46609 2884 ft 166 kts 136°
2026-05-04 06:34 47.52493 8.47750 2609 ft 158 kts 136°
2026-05-04 06:34 47.51704 8.48845 2347 ft 153 kts 136°
2026-05-04 06:34 47.50915 8.49897 2149 ft 152 kts 137°
2026-05-04 06:35 47.50145 8.50957 1955 ft 150 kts 137°
2026-05-04 06:36 47.46266 8.55997 1406 ft 35 kts 168°
2026-05-04 06:37 47.46060 8.55991 1407 ft 29 kts 187°
2026-05-04 06:37 47.45867 8.55923 1415 ft 27 kts 200°
2026-05-04 06:37 47.45689 8.55862 1410 ft 26 kts 185°
2026-05-04 06:37 47.45524 8.55833 1408 ft 15 kts 196°
2026-05-04 06:38 47.45448 8.55807 1407 ft 8 kts 185°
2026-05-04 06:38 47.45430 8.55804 1407 ft 1 kts 185°